When you browse on this site, cookies collect data to enhance your experience and personalize the content and advertising you see.
Visit our Privacy Policy to learn more. By continuing to use the site, you agree to this use of cookies and data.
  • In Latvia
  • List of Countries
  • For 7 days
  • Water Temperature
  • Satellite Maps
  • Weather Map
  • Weather Widgets
  • user-avatar
    Login

    Hourly Weather Mons

    Today, 22 July, Monday

    Time Temperature Precipitation Wind Pressure Humidity
    00:00 +15°C° 0 mm 0 mps 765 mmHg 72%
    01:00 +16°C° 0 mm 1 mps 765 mmHg 73%
    02:00 +16°C° 0 mm 1 mps 765 mmHg 75%
    03:00 +16°C° 0 mm 2 mps 765 mmHg 76%
    04:00 +16°C° 0 mm 2 mps 765 mmHg 76%
    05:00 +17°C° 0 mm 2 mps 765 mmHg 75%
    06:00 +18°C° 0 mm 2 mps 765 mmHg 72%
    07:00 +20°C° 0 mm 3 mps 765 mmHg 68%
    08:00 +22°C° 0 mm 3 mps 765 mmHg 64%
    09:00 +25°C° 0 mm 3 mps 765 mmHg 60%
    10:00 +26°C° 0 mm 3 mps 765 mmHg 57%
    11:00 +27°C° 0 mm 3 mps 765 mmHg 53%
    12:00 +28°C° 0 mm 3 mps 765 mmHg 50%
    13:00 +28°C° 0 mm 3 mps 765 mmHg 49%
    14:00 +29°C° 0 mm 2 mps 764 mmHg 48%
    15:00 +29°C° 0 mm 2 mps 764 mmHg 48%
    16:00 +29°C° 0 mm 2 mps 764 mmHg 52%
    17:00 +28°C° 0 mm 1 mps 764 mmHg 56%
    18:00 +28°C° 0 mm 1 mps 764 mmHg 60%
    19:00 +26°C° 0 mm 1 mps 764 mmHg 63%
    20:00 +24°C° 0 mm 1 mps 764 mmHg 67%
    21:00 +22°C° 0 mm 1 mps 765 mmHg 70%
    22:00 +21°C° 0 mm 1 mps 764 mmHg 73%
    23:00 +21°C° 0 mm 1 mps 764 mmHg 75%

    Tomorrow, 23 July, Tuesday

    Time Temperature Precipitation Wind Pressure Humidity
    00:00 +20°C° 0 mm 1 mps 764 mmHg 78%
    01:00 +20°C° 0 mm 1 mps 764 mmHg 79%
    02:00 +20°C° 0 mm 1 mps 764 mmHg 80%
    03:00 +19°C° 0 mm 1 mps 763 mmHg 80%
    04:00 +19°C° 0 mm 2 mps 763 mmHg 79%
    05:00 +20°C° 0 mm 2 mps 763 mmHg 77%
    06:00 +21°C° 0 mm 2 mps 763 mmHg 75%
    07:00 +24°C° 0 mm 2 mps 763 mmHg 68%
    08:00 +26°C° 0 mm 2 mps 763 mmHg 60%
    09:00 +28°C° 0 mm 2 mps 762 mmHg 53%
    10:00 +30°C° 0 mm 2 mps 762 mmHg 49%
    11:00 +31°C° 0 mm 2 mps 762 mmHg 45%
    12:00 +32°C° 0 mm 2 mps 761 mmHg 40%
    13:00 +34°C° 0 mm 2 mps 761 mmHg 39%
    14:00 +34°C° 0 mm 2 mps 761 mmHg 38%
    15:00 +35°C° 0 mm 2 mps 760 mmHg 38%
    16:00 +34°C° 0 mm 2 mps 760 mmHg 43%
    17:00 +32°C° 0 mm 2 mps 759 mmHg 48%
    18:00 +31°C° 0 mm 1 mps 759 mmHg 54%
    19:00 +29°C° 0 mm 2 mps 759 mmHg 57%
    20:00 +27°C° 0 mm 2 mps 759 mmHg 60%
    21:00 +25°C° 0 mm 2 mps 759 mmHg 64%
    22:00 +25°C° 0 mm 3 mps 759 mmHg 65%
    23:00 +24°C° 0 mm 3 mps 758 mmHg 67%

    Day after tomorrow, 24 July, Wednesday

    Time Temperature Precipitation Wind Pressure Humidity
    00:00 +22°C° 0 mm 3 mps 758 mmHg 69%
    01:00 +22°C° 0 mm 3 mps 758 mmHg 68%
    02:00 +22°C° 0 mm 3 mps 758 mmHg 68%
    03:00 +22°C° 0 mm 3 mps 758 mmHg 68%
    04:00 +24°C° 0 mm 3 mps 758 mmHg 68%
    05:00 +24°C° 0 mm 3 mps 757 mmHg 69%
    06:00 +25°C° 0 mm 2 mps 757 mmHg 69%
    07:00 +27°C° 0 mm 3 mps 757 mmHg 64%
    08:00 +30°C° 0 mm 3 mps 757 mmHg 59%
    09:00 +33°C° 0 mm 4 mps 757 mmHg 54%
    10:00 +34°C° 0 mm 4 mps 757 mmHg 50%
    11:00 +36°C° 0 mm 4 mps 757 mmHg 45%
    12:00 +37°C° 0 mm 4 mps 757 mmHg 40%
    13:00 +37°C° 0 mm 4 mps 757 mmHg 41%
    14:00 +38°C° 0 mm 4 mps 757 mmHg 41%
    15:00 +38°C° 0 mm 4 mps 756 mmHg 42%
    16:00 +37°C° 0 mm 3 mps 756 mmHg 46%
    17:00 +37°C° 0 mm 2 mps 756 mmHg 49%
    18:00 +35°C° 0 mm 1 mps 756 mmHg 53%
    19:00 +32°C° 0 mm 1 mps 756 mmHg 58%
    20:00 +30°C° 0 mm 2 mps 757 mmHg 62%
    21:00 +27°C° 0 mm 2 mps 757 mmHg 67%
    22:00 +27°C° 0.2 mm 2 mps 757 mmHg 70%
    23:00 +26°C° 0.2 mm 2 mps 757 mmHg 73%

    25 July, Thursday

    Time Temperature Precipitation Wind Pressure Humidity
    00:00 +25°C° 0.2 mm 2 mps 757 mmHg 76%
    01:00 +24°C° 0.2 mm 3 mps 757 mmHg 75%
    02:00 +24°C° 0.2 mm 3 mps 757 mmHg 74%
    03:00 +24°C° 0.2 mm 3 mps 757 mmHg 73%
    04:00 +25°C° 0 mm 3 mps 757 mmHg 71%
    05:00 +26°C° 0 mm 3 mps 757 mmHg 70%
    06:00 +26°C° 0 mm 3 mps 757 mmHg 68%
    07:00 +29°C° 0 mm 4 mps 757 mmHg 62%
    08:00 +32°C° 0 mm 4 mps 757 mmHg 55%
    09:00 +35°C° 0 mm 4 mps 757 mmHg 49%
    10:00 +36°C° 0 mm 4 mps 757 mmHg 45%
    11:00 +38°C° 0 mm 4 mps 756 mmHg 41%
    12:00 +39°C° 0 mm 3 mps 756 mmHg 37%
    13:00 +41°C° 0 mm 4 mps 756 mmHg 35%
    14:00 +41°C° 0 mm 4 mps 756 mmHg 33%
    15:00 +41°C° 0 mm 4 mps 755 mmHg 31%
    16:00 +39°C° 0 mm 3 mps 755 mmHg 36%
    17:00 +38°C° 0 mm 3 mps 755 mmHg 41%
    18:00 +36°C° 0 mm 3 mps 755 mmHg 46%
    19:00 +34°C° 0 mm 3 mps 755 mmHg 47%
    20:00 +33°C° 0 mm 4 mps 755 mmHg 47%
    21:00 +30°C° 0 mm 4 mps 756 mmHg 48%
    22:00 +29°C° 0 mm 3 mps 756 mmHg 51%
    23:00 +27°C° 0 mm 3 mps 756 mmHg 55%

    26 July, Friday

    Time Temperature Precipitation Wind Pressure Humidity
    00:00 +26°C° 0 mm 2 mps 756 mmHg 58%
    01:00 +26°C° 0 mm 2 mps 755 mmHg 60%
    02:00 +25°C° 0 mm 2 mps 755 mmHg 62%
    03:00 +25°C° 0 mm 2 mps 755 mmHg 64%
    04:00 +25°C° 0 mm 1 mps 755 mmHg 65%
    05:00 +26°C° 0 mm 1 mps 755 mmHg 66%
    06:00 +26°C° 0 mm 1 mps 755 mmHg 67%
    07:00 +28°C° 0 mm 1 mps 755 mmHg 63%
    08:00 +29°C° 0 mm 2 mps 756 mmHg 59%
    09:00 +31°C° 0 mm 2 mps 756 mmHg 55%
    10:00 +33°C° 0 mm 3 mps 756 mmHg 54%
    11:00 +34°C° 0 mm 3 mps 756 mmHg 52%
    12:00 +34°C° 0 mm 4 mps 755 mmHg 51%
    13:00 +34°C° 0 mm 5 mps 755 mmHg 52%
    14:00 +33°C° 0 mm 5 mps 755 mmHg 53%
    15:00 +32°C° 0 mm 6 mps 755 mmHg 54%
    16:00 +30°C° 0.1 mm 6 mps 755 mmHg 58%
    17:00 +29°C° 0.1 mm 6 mps 755 mmHg 61%
    18:00 +27°C° 0.1 mm 5 mps 755 mmHg 64%
    19:00 +26°C° 0.1 mm 5 mps 756 mmHg 69%
    20:00 +23°C° 0.1 mm 4 mps 756 mmHg 75%
    21:00 +21°C° 0.1 mm 3 mps 756 mmHg 80%
    22:00 +21°C° 1.1 mm 3 mps 756 mmHg 83%
    23:00 +20°C° 1.1 mm 3 mps 757 mmHg 86%

    27 July, Saturday

    Time Temperature Precipitation Wind Pressure Humidity
    00:00 +19°C° 1.1 mm 3 mps 757 mmHg 90%
    01:00 +18°C° 0.3 mm 3 mps 757 mmHg 90%
    02:00 +18°C° 0.3 mm 3 mps 756 mmHg 91%
    03:00 +18°C° 0.3 mm 2 mps 756 mmHg 91%
    04:00 +18°C° 0.4 mm 3 mps 756 mmHg 90%
    05:00 +18°C° 0.4 mm 3 mps 757 mmHg 88%
    06:00 +19°C° 0.4 mm 3 mps 757 mmHg 86%
    07:00 +20°C° 0 mm 3 mps 757 mmHg 79%
    08:00 +22°C° 0 mm 3 mps 757 mmHg 72%
    09:00 +24°C° 0 mm 3 mps 758 mmHg 65%
    10:00 +25°C° 0 mm 3 mps 758 mmHg 61%
    11:00 +25°C° 0 mm 3 mps 758 mmHg 58%
    12:00 +26°C° 0 mm 3 mps 758 mmHg 54%
    13:00 +26°C° 0 mm 4 mps 758 mmHg 52%
    14:00 +27°C° 0 mm 4 mps 758 mmHg 50%
    15:00 +28°C° 0 mm 4 mps 758 mmHg 48%
    16:00 +27°C° 0 mm 4 mps 758 mmHg 51%
    17:00 +26°C° 0 mm 4 mps 758 mmHg 54%
    18:00 +23°C° 0 mm 4 mps 758 mmHg 57%
    19:00 +22°C° 0 mm 3 mps 758 mmHg 60%
    20:00 +20°C° 0 mm 3 mps 758 mmHg 64%
    21:00 +18°C° 0 mm 2 mps 759 mmHg 68%
    22:00 +17°C° 0 mm 2 mps 759 mmHg 72%
    23:00 +16°C° 0 mm 2 mps 759 mmHg 75%
    Show more